owner,sensor,date,latitude,longitude,vertical_datum,wind_speed,wind_to_direction,wind_speed_of_gust,qcFlag 
TCOON,ioos:station:TCOON:518:1,2017-05-01T00:00:00Z,29.5150,-94.5133,0.0,3.8,317.0,6.0,'11111222,11111222,11111222' 
TCOON,ioos:station:TCOON:518:1,2017-05-01T00:06:00Z,29.5150,-94.5133,0.0,2.6,343.0,5.3,'11111222,11111222,11111222' 
TCOON,ioos:station:TCOON:518:1,2017-05-01T00:12:00Z,29.5150,-94.5133,0.0,2.8,310.0,4.3,'11111222,11111222,11111222' 
TCOON,ioos:station:TCOON:518:1,2017-05-01T00:18:00Z,29.5150,-94.5133,0.0,2.8,310.0,4.3,'1111122,1111122,1111122' 
TCOON,ioos:station:TCOON:518:1,2017-05-01T00:24:00Z,29.5150,-94.5133,0.0,2.9,333.0,4.5,'11111222,11111222,11111222' 
TCOON,ioos:station:TCOON:518:1,2017-05-01T00:30:00Z,29.5150,-94.5133,0.0,2.2,298.0,3.4,'11111222,11111222,11111222' 
TCOON,ioos:station:TCOON:518:1,2017-05-01T00:36:00Z,29.5150,-94.5133,0.0,1.9,285.0,2.4,'11111222,11111222,11111222' 
TCOON,ioos:station:TCOON:518:1,2017-05-01T00:42:00Z,29.5150,-94.5133,0.0,1.6,312.0,2.2,'11111222,11111222,11111222' 
TCOON,ioos:station:TCOON:518:1,2017-05-01T00:48:00Z,29.5150,-94.5133,0.0,2.2,315.0,3.1,'11111222,11111222,11111222' 
TCOON,ioos:station:TCOON:518:1,2017-05-01T00:54:00Z,29.5150,-94.5133,0.0,1.3,306.0,2.3,'11111222,11111222,11111222' 
TCOON,ioos:station:TCOON:518:1,2017-05-01T01:00:00Z,29.5150,-94.5133,0.0,1.2,299.0,2.2,'11111222,11111222,11111222' 
TCOON,ioos:station:TCOON:518:1,2017-05-01T01:06:00Z,29.5150,-94.5133,0.0,1.6,307.0,2.5,'11111222,11111222,11111222' 
TCOON,ioos:station:TCOON:518:1,2017-05-01T01:12:00Z,29.5150,-94.5133,0.0,2.3,352.0,2.6,'11111222,11111222,11111222' 
TCOON,ioos:station:TCOON:518:1,2017-05-01T01:18:00Z,29.5150,-94.5133,0.0,2.3,352.0,2.6,'1111122,1111122,1111122' 
TCOON,ioos:station:TCOON:518:1,2017-05-01T01:24:00Z,29.5150,-94.5133,0.0,1.6,1.0,2.7,'11111222,11111222,11111222' 
TCOON,ioos:station:TCOON:518:1,2017-05-01T01:30:00Z,29.5150,-94.5133,0.0,1.3,304.0,2.0,'11111222,11111222,11111222' 
TCOON,ioos:station:TCOON:518:1,2017-05-01T01:36:00Z,29.5150,-94.5133,0.0,2.0,336.0,2.4,'11111222,11111222,11111222' 
TCOON,ioos:station:TCOON:518:1,2017-05-01T01:42:00Z,29.5150,-94.5133,0.0,1.2,4.0,2.4,'11111222,11111222,11111222' 
TCOON,ioos:station:TCOON:518:1,2017-05-01T01:48:00Z,29.5150,-94.5133,0.0,0.5,247.0,1.4,'11111222,11111222,11111222' 
TCOON,ioos:station:TCOON:518:1,2017-05-01T01:54:00Z,29.5150,-94.5133,0.0,1.1,231.0,1.4,'11111222,11111222,11111222' 
TCOON,ioos:station:TCOON:518:1,2017-05-01T02:00:00Z,29.5150,-94.5133,0.0,1.3,219.0,1.5,'11111222,11111222,11111222' 
TCOON,ioos:station:TCOON:518:1,2017-05-01T02:06:00Z,29.5150,-94.5133,0.0,1.0,219.0,1.4,'11111222,11111222,11111222' 
TCOON,ioos:station:TCOON:518:1,2017-05-01T02:12:00Z,29.5150,-94.5133,0.0,0.6,218.0,0.9,'11111222,11111222,11111222' 
TCOON,ioos:station:TCOON:518:1,2017-05-01T02:18:00Z,29.5150,-94.5133,0.0,0.6,218.0,0.9,'1111122,1111122,1111122' 
TCOON,ioos:station:TCOON:518:1,2017-05-01T02:24:00Z,29.5150,-94.5133,0.0,1.2,229.0,1.4,'11111222,11111222,11111222' 
TCOON,ioos:station:TCOON:518:1,2017-05-01T02:30:00Z,29.5150,-94.5133,0.0,1.5,235.0,1.6,'11111222,11111222,11111222' 
TCOON,ioos:station:TCOON:518:1,2017-05-01T02:36:00Z,29.5150,-94.5133,0.0,1.6,234.0,1.7,'11111222,11111222,11111222' 
TCOON,ioos:station:TCOON:518:1,2017-05-01T02:42:00Z,29.5150,-94.5133,0.0,1.3,225.0,1.7,'11111222,11111222,11111222' 
TCOON,ioos:station:TCOON:518:1,2017-05-01T02:48:00Z,29.5150,-94.5133,0.0,1.2,223.0,1.4,'11111222,11111222,11111222' 
TCOON,ioos:station:TCOON:518:1,2017-05-01T02:54:00Z,29.5150,-94.5133,0.0,1.0,224.0,1.3,'11111222,11111222,11111222' 
TCOON,ioos:station:TCOON:518:1,2017-05-01T03:00:00Z,29.5150,-94.5133,0.0,0.9,247.0,1.0,'11111222,11111222,11111222' 
TCOON,ioos:station:TCOON:518:1,2017-05-01T03:06:00Z,29.5150,-94.5133,0.0,0.6,252.0,1.0,'11111222,11111222,11111222' 
TCOON,ioos:station:TCOON:518:1,2017-05-01T03:12:00Z,29.5150,-94.5133,0.0,0.6,242.0,0.7,'11111222,11111222,11111222' 
TCOON,ioos:station:TCOON:518:1,2017-05-01T03:18:00Z,29.5150,-94.5133,0.0,0.6,242.0,0.7,'1111122,1111122,1111122' 
TCOON,ioos:station:TCOON:518:1,2017-05-01T03:24:00Z,29.5150,-94.5133,0.0,0.6,232.0,0.7,'11111222,11111222,11111222' 
TCOON,ioos:station:TCOON:518:1,2017-05-01T03:30:00Z,29.5150,-94.5133,0.0,0.7,208.0,0.8,'11111222,11111222,11111222' 
TCOON,ioos:station:TCOON:518:1,2017-05-01T03:36:00Z,29.5150,-94.5133,0.0,0.5,209.0,0.6,'11111222,11111222,11111222' 
TCOON,ioos:station:TCOON:518:1,2017-05-01T03:42:00Z,29.5150,-94.5133,0.0,0.5,210.0,0.5,'11111222,11111222,11111222' 
TCOON,ioos:station:TCOON:518:1,2017-05-01T03:48:00Z,29.5150,-94.5133,0.0,0.9,217.0,0.9,'11111222,11111222,11111222' 
TCOON,ioos:station:TCOON:518:1,2017-05-01T03:54:00Z,29.5150,-94.5133,0.0,1.0,224.0,1.1,'11111222,11111222,11111222' 
TCOON,ioos:station:TCOON:518:1,2017-05-01T04:00:00Z,29.5150,-94.5133,0.0,0.9,234.0,1.3,'11111222,11111222,11111222' 
TCOON,ioos:station:TCOON:518:1,2017-05-01T04:06:00Z,29.5150,-94.5133,0.0,0.8,263.0,1.1,'11111222,11111222,11111222' 
TCOON,ioos:station:TCOON:518:1,2017-05-01T04:12:00Z,29.5150,-94.5133,0.0,1.2,246.0,1.3,'11111222,11111222,11111222' 
TCOON,ioos:station:TCOON:518:1,2017-05-01T04:18:00Z,29.5150,-94.5133,0.0,1.4,243.0,1.5,'11111222,11111222,11111222' 
TCOON,ioos:station:TCOON:518:1,2017-05-01T04:24:00Z,29.5150,-94.5133,0.0,1.4,243.0,1.5,'1111122,1111122,1111122' 
TCOON,ioos:station:TCOON:518:1,2017-05-01T04:30:00Z,29.5150,-94.5133,0.0,1.2,221.0,1.5,'11111222,11111222,11111222' 
TCOON,ioos:station:TCOON:518:1,2017-05-01T04:36:00Z,29.5150,-94.5133,0.0,1.0,220.0,1.4,'11111222,11111222,11111222' 
TCOON,ioos:station:TCOON:518:1,2017-05-01T04:42:00Z,29.5150,-94.5133,0.0,1.7,229.0,2.1,'11111222,11111222,11111222' 
TCOON,ioos:station:TCOON:518:1,2017-05-01T04:48:00Z,29.5150,-94.5133,0.0,1.8,230.0,2.1,'11111222,11111222,11111222' 
TCOON,ioos:station:TCOON:518:1,2017-05-01T04:54:00Z,29.5150,-94.5133,0.0,2.0,228.0,2.2,'11111222,11111222,11111222' 
TCOON,ioos:station:TCOON:518:1,2017-05-01T05:00:00Z,29.5150,-94.5133,0.0,1.6,237.0,2.3,'11111222,11111222,11111222' 
TCOON,ioos:station:TCOON:518:1,2017-05-01T05:06:00Z,29.5150,-94.5133,0.0,1.6,236.0,1.9,'11111222,11111222,11111222' 
TCOON,ioos:station:TCOON:518:1,2017-05-01T05:12:00Z,29.5150,-94.5133,0.0,1.5,224.0,1.9,'11111222,11111222,11111222' 
TCOON,ioos:station:TCOON:518:1,2017-05-01T05:18:00Z,29.5150,-94.5133,0.0,1.5,224.0,1.9,'1111122,1111122,1111122' 
TCOON,ioos:station:TCOON:518:1,2017-05-01T05:24:00Z,29.5150,-94.5133,0.0,2.3,227.0,2.6,'11111222,11111222,11111222' 
TCOON,ioos:station:TCOON:518:1,2017-05-01T05:30:00Z,29.5150,-94.5133,0.0,2.0,223.0,2.9,'11111222,11111222,11111222' 
TCOON,ioos:station:TCOON:518:1,2017-05-01T05:36:00Z,29.5150,-94.5133,0.0,1.5,210.0,2.5,'11111222,11111222,11111222' 
TCOON,ioos:station:TCOON:518:1,2017-05-01T05:42:00Z,29.5150,-94.5133,0.0,1.9,226.0,2.4,'11111222,11111222,11111222' 
TCOON,ioos:station:TCOON:518:1,2017-05-01T05:48:00Z,29.5150,-94.5133,0.0,1.8,209.0,2.5,'11111222,11111222,11111222' 
TCOON,ioos:station:TCOON:518:1,2017-05-01T05:54:00Z,29.5150,-94.5133,0.0,1.3,209.0,2.3,'11111222,11111222,11111222' 
TCOON,ioos:station:TCOON:518:1,2017-05-01T06:00:00Z,29.5150,-94.5133,0.0,1.4,212.0,2.2,'11111222,11111222,11111222' 
TCOON,ioos:station:TCOON:518:1,2017-05-01T06:06:00Z,29.5150,-94.5133,0.0,1.7,207.0,2.2,'11111222,11111222,11111222' 
TCOON,ioos:station:TCOON:518:1,2017-05-01T06:12:00Z,29.5150,-94.5133,0.0,1.6,225.0,2.4,'11111222,11111222,11111222' 
TCOON,ioos:station:TCOON:518:1,2017-05-01T06:18:00Z,29.5150,-94.5133,0.0,1.6,225.0,2.4,'1111122,1111122,1111122' 
TCOON,ioos:station:TCOON:518:1,2017-05-01T06:24:00Z,29.5150,-94.5133,0.0,1.9,237.0,2.2,'11111222,11111222,11111222' 
TCOON,ioos:station:TCOON:518:1,2017-05-01T06:30:00Z,29.5150,-94.5133,0.0,2.0,233.0,2.3,'11111222,11111222,11111222' 
TCOON,ioos:station:TCOON:518:1,2017-05-01T06:36:00Z,29.5150,-94.5133,0.0,2.1,234.0,2.4,'11111222,11111222,11111222' 
TCOON,ioos:station:TCOON:518:1,2017-05-01T06:42:00Z,29.5150,-94.5133,0.0,2.2,233.0,2.5,'11111222,11111222,11111222' 
TCOON,ioos:station:TCOON:518:1,2017-05-01T06:48:00Z,29.5150,-94.5133,0.0,1.7,232.0,2.4,'11111222,11111222,11111222' 
TCOON,ioos:station:TCOON:518:1,2017-05-01T06:54:00Z,29.5150,-94.5133,0.0,1.7,249.0,2.1,'11111222,11111222,11111222' 
TCOON,ioos:station:TCOON:518:1,2017-05-01T07:00:00Z,29.5150,-94.5133,0.0,1.3,243.0,1.8,'11111222,11111222,11111222' 
TCOON,ioos:station:TCOON:518:1,2017-05-01T07:06:00Z,29.5150,-94.5133,0.0,1.4,246.0,1.8,'11111222,11111222,11111222' 
TCOON,ioos:station:TCOON:518:1,2017-05-01T07:12:00Z,29.5150,-94.5133,0.0,1.7,246.0,2.0,'11111222,11111222,11111222' 
TCOON,ioos:station:TCOON:518:1,2017-05-01T07:18:00Z,29.5150,-94.5133,0.0,1.7,246.0,2.0,'1111122,1111122,1111122' 
TCOON,ioos:station:TCOON:518:1,2017-05-01T07:24:00Z,29.5150,-94.5133,0.0,2.1,232.0,2.4,'11111222,11111222,11111222' 
TCOON,ioos:station:TCOON:518:1,2017-05-01T07:30:00Z,29.5150,-94.5133,0.0,2.1,240.0,2.4,'11111222,11111222,11111222' 
TCOON,ioos:station:TCOON:518:1,2017-05-01T07:36:00Z,29.5150,-94.5133,0.0,1.2,251.0,2.5,'11111222,11111222,11111222' 
TCOON,ioos:station:TCOON:518:1,2017-05-01T07:42:00Z,29.5150,-94.5133,0.0,1.5,256.0,2.3,'11111222,11111222,11111222' 
TCOON,ioos:station:TCOON:518:1,2017-05-01T07:48:00Z,29.5150,-94.5133,0.0,1.6,255.0,2.4,'11111222,11111222,11111222' 
TCOON,ioos:station:TCOON:518:1,2017-05-01T07:54:00Z,29.5150,-94.5133,0.0,1.7,248.0,2.4,'11111222,11111222,11111222' 
TCOON,ioos:station:TCOON:518:1,2017-05-01T08:00:00Z,29.5150,-94.5133,0.0,2.1,244.0,2.3,'11111222,11111222,11111222' 
TCOON,ioos:station:TCOON:518:1,2017-05-01T08:06:00Z,29.5150,-94.5133,0.0,2.4,246.0,2.7,'11111222,11111222,11111222' 
TCOON,ioos:station:TCOON:518:1,2017-05-01T08:12:00Z,29.5150,-94.5133,0.0,1.8,256.0,2.6,'11111222,11111222,11111222' 
TCOON,ioos:station:TCOON:518:1,2017-05-01T08:18:00Z,29.5150,-94.5133,0.0,1.8,254.0,2.4,'11111222,11111222,11111222' 
TCOON,ioos:station:TCOON:518:1,2017-05-01T08:24:00Z,29.5150,-94.5133,0.0,1.8,254.0,2.4,'1111122,1111122,1111122' 
TCOON,ioos:station:TCOON:518:1,2017-05-01T08:30:00Z,29.5150,-94.5133,0.0,1.9,252.0,2.3,'11111222,11111222,11111222' 
TCOON,ioos:station:TCOON:518:1,2017-05-01T08:36:00Z,29.5150,-94.5133,0.0,2.2,252.0,2.5,'11111222,11111222,11111222' 
TCOON,ioos:station:TCOON:518:1,2017-05-01T08:42:00Z,29.5150,-94.5133,0.0,2.0,255.0,2.6,'11111222,11111222,11111222' 
TCOON,ioos:station:TCOON:518:1,2017-05-01T08:48:00Z,29.5150,-94.5133,0.0,2.0,255.0,2.8,'11111222,11111222,11111222' 
TCOON,ioos:station:TCOON:518:1,2017-05-01T08:54:00Z,29.5150,-94.5133,0.0,1.9,254.0,2.5,'11111222,11111222,11111222' 
TCOON,ioos:station:TCOON:518:1,2017-05-01T09:00:00Z,29.5150,-94.5133,0.0,1.8,252.0,2.3,'11111222,11111222,11111222' 
TCOON,ioos:station:TCOON:518:1,2017-05-01T09:06:00Z,29.5150,-94.5133,0.0,2.0,248.0,2.3,'11111222,11111222,11111222' 
TCOON,ioos:station:TCOON:518:1,2017-05-01T09:12:00Z,29.5150,-94.5133,0.0,2.6,245.0,2.7,'11111222,11111222,11111222' 
TCOON,ioos:station:TCOON:518:1,2017-05-01T09:18:00Z,29.5150,-94.5133,0.0,2.5,244.0,2.8,'11111222,11111222,11111222' 
TCOON,ioos:station:TCOON:518:1,2017-05-01T09:24:00Z,29.5150,-94.5133,0.0,2.5,244.0,2.8,'1111122,1111122,1111122' 
TCOON,ioos:station:TCOON:518:1,2017-05-01T09:30:00Z,29.5150,-94.5133,0.0,1.9,248.0,2.2,'11111222,11111222,11111222' 
TCOON,ioos:station:TCOON:518:1,2017-05-01T09:36:00Z,29.5150,-94.5133,0.0,1.8,252.0,2.2,'11111222,11111222,11111222' 
TCOON,ioos:station:TCOON:518:1,2017-05-01T09:42:00Z,29.5150,-94.5133,0.0,1.8,253.0,2.1,'11111222,11111222,11111222' 
TCOON,ioos:station:TCOON:518:1,2017-05-01T09:48:00Z,29.5150,-94.5133,0.0,1.8,251.0,2.1,'11111222,11111222,11111222' 
TCOON,ioos:station:TCOON:518:1,2017-05-01T09:54:00Z,29.5150,-94.5133,0.0,1.7,249.0,2.0,'11111222,11111222,11111222' 
TCOON,ioos:station:TCOON:518:1,2017-05-01T10:00:00Z,29.5150,-94.5133,0.0,1.8,242.0,1.8,'11111222,11111222,11111222' 
TCOON,ioos:station:TCOON:518:1,2017-05-01T10:06:00Z,29.5150,-94.5133,0.0,1.5,232.0,1.8,'11111222,11111222,11111222' 
TCOON,ioos:station:TCOON:518:1,2017-05-01T10:12:00Z,29.5150,-94.5133,0.0,1.2,215.0,1.5,'11111222,11111222,11111222' 
TCOON,ioos:station:TCOON:518:1,2017-05-01T10:18:00Z,29.5150,-94.5133,0.0,1.6,202.0,1.7,'11111222,11111222,11111222' 
TCOON,ioos:station:TCOON:518:1,2017-05-01T10:24:00Z,29.5150,-94.5133,0.0,1.6,202.0,1.7,'1111122,1111122,1111122' 
TCOON,ioos:station:TCOON:518:1,2017-05-01T10:30:00Z,29.5150,-94.5133,0.0,1.1,221.0,1.6,'11111222,11111222,11111222' 
TCOON,ioos:station:TCOON:518:1,2017-05-01T10:36:00Z,29.5150,-94.5133,0.0,1.0,225.0,1.2,'11111222,11111222,11111222' 
TCOON,ioos:station:TCOON:518:1,2017-05-01T10:54:00Z,29.5150,-94.5133,0.0,1.3,213.0,1.4,'11111222,11111222,11111222' 
TCOON,ioos:station:TCOON:518:1,2017-05-01T11:00:00Z,29.5150,-94.5133,0.0,1.3,221.0,1.4,'11111222,11111222,11111222' 
TCOON,ioos:station:TCOON:518:1,2017-05-01T11:06:00Z,29.5150,-94.5133,0.0,1.3,219.0,1.5,'11111222,11111222,11111222' 
TCOON,ioos:station:TCOON:518:1,2017-05-01T11:12:00Z,29.5150,-94.5133,0.0,1.3,219.0,1.5,'11111222,11111222,11111222' 
TCOON,ioos:station:TCOON:518:1,2017-05-01T11:18:00Z,29.5150,-94.5133,0.0,1.4,218.0,1.6,'11111222,11111222,11111222' 
TCOON,ioos:station:TCOON:518:1,2017-05-01T11:24:00Z,29.5150,-94.5133,0.0,1.4,218.0,1.6,'1111122,1111122,1111122' 
TCOON,ioos:station:TCOON:518:1,2017-05-01T11:30:00Z,29.5150,-94.5133,0.0,1.3,215.0,1.6,'11111222,11111222,11111222' 
TCOON,ioos:station:TCOON:518:1,2017-05-01T11:36:00Z,29.5150,-94.5133,0.0,1.4,217.0,1.8,'11111222,11111222,11111222' 
TCOON,ioos:station:TCOON:518:1,2017-05-01T11:42:00Z,29.5150,-94.5133,0.0,1.4,216.0,1.7,'11111222,11111222,11111222' 
TCOON,ioos:station:TCOON:518:1,2017-05-01T11:48:00Z,29.5150,-94.5133,0.0,1.4,214.0,2.0,'11111222,11111222,11111222' 
TCOON,ioos:station:TCOON:518:1,2017-05-01T11:54:00Z,29.5150,-94.5133,0.0,1.4,211.0,1.9,'11111222,11111222,11111222' 
TCOON,ioos:station:TCOON:518:1,2017-05-01T12:00:00Z,29.5150,-94.5133,0.0,1.7,200.0,2.1,'11111222,11111222,11111222' 
TCOON,ioos:station:TCOON:518:1,2017-05-01T12:06:00Z,29.5150,-94.5133,0.0,1.7,201.0,2.2,'11111222,11111222,11111222' 
TCOON,ioos:station:TCOON:518:1,2017-05-01T12:12:00Z,29.5150,-94.5133,0.0,2.2,195.0,3.2,'11111222,11111222,11111222' 
TCOON,ioos:station:TCOON:518:1,2017-05-01T12:18:00Z,29.5150,-94.5133,0.0,1.7,195.0,3.0,'11111222,11111222,11111222' 
TCOON,ioos:station:TCOON:518:1,2017-05-01T12:24:00Z,29.5150,-94.5133,0.0,1.7,195.0,3.0,'1111122,1111122,1111122' 
TCOON,ioos:station:TCOON:518:1,2017-05-01T12:30:00Z,29.5150,-94.5133,0.0,2.0,195.0,2.7,'11111222,11111222,11111222' 
TCOON,ioos:station:TCOON:518:1,2017-05-01T12:36:00Z,29.5150,-94.5133,0.0,1.8,199.0,2.8,'11111222,11111222,11111222' 
TCOON,ioos:station:TCOON:518:1,2017-05-01T12:42:00Z,29.5150,-94.5133,0.0,1.4,211.0,2.7,'11111222,11111222,11111222' 
TCOON,ioos:station:TCOON:518:1,2017-05-01T12:48:00Z,29.5150,-94.5133,0.0,1.6,203.0,2.3,'11111222,11111222,11111222' 
TCOON,ioos:station:TCOON:518:1,2017-05-01T12:54:00Z,29.5150,-94.5133,0.0,1.6,209.0,2.9,'11111222,11111222,11111222' 
TCOON,ioos:station:TCOON:518:1,2017-05-01T13:00:00Z,29.5150,-94.5133,0.0,1.3,219.0,2.7,'11111222,11111222,11111222' 
TCOON,ioos:station:TCOON:518:1,2017-05-01T13:06:00Z,29.5150,-94.5133,0.0,1.3,214.0,2.2,'11111222,11111222,11111222' 
TCOON,ioos:station:TCOON:518:1,2017-05-01T13:12:00Z,29.5150,-94.5133,0.0,1.6,215.0,3.1,'11111222,11111222,11111222' 
TCOON,ioos:station:TCOON:518:1,2017-05-01T13:18:00Z,29.5150,-94.5133,0.0,1.6,215.0,3.1,'1111122,1111122,1111122' 
TCOON,ioos:station:TCOON:518:1,2017-05-01T13:24:00Z,29.5150,-94.5133,0.0,1.6,207.0,4.0,'11111222,11111222,11111222' 
TCOON,ioos:station:TCOON:518:1,2017-05-01T13:30:00Z,29.5150,-94.5133,0.0,1.6,209.0,3.1,'11111222,11111222,11111222' 
TCOON,ioos:station:TCOON:518:1,2017-05-01T13:36:00Z,29.5150,-94.5133,0.0,2.2,214.0,3.7,'11111222,11111222,11111222' 
TCOON,ioos:station:TCOON:518:1,2017-05-01T13:42:00Z,29.5150,-94.5133,0.0,1.9,210.0,3.7,'11111222,11111222,11111222' 
TCOON,ioos:station:TCOON:518:1,2017-05-01T13:48:00Z,29.5150,-94.5133,0.0,1.9,209.0,3.7,'11111222,11111222,11111222' 
TCOON,ioos:station:TCOON:518:1,2017-05-01T13:54:00Z,29.5150,-94.5133,0.0,2.7,225.0,4.4,'11111222,11111222,11111222' 
TCOON,ioos:station:TCOON:518:1,2017-05-01T14:00:00Z,29.5150,-94.5133,0.0,2.8,222.0,4.2,'11111222,11111222,11111222' 
TCOON,ioos:station:TCOON:518:1,2017-05-01T14:06:00Z,29.5150,-94.5133,0.0,3.0,218.0,4.6,'11111222,11111222,11111222' 
TCOON,ioos:station:TCOON:518:1,2017-05-01T14:12:00Z,29.5150,-94.5133,0.0,3.2,224.0,4.8,'11111222,11111222,11111222' 
TCOON,ioos:station:TCOON:518:1,2017-05-01T14:18:00Z,29.5150,-94.5133,0.0,3.2,224.0,4.8,'1111122,1111122,1111122' 
TCOON,ioos:station:TCOON:518:1,2017-05-01T14:24:00Z,29.5150,-94.5133,0.0,2.9,217.0,5.3,'11111222,11111222,11111222' 
TCOON,ioos:station:TCOON:518:1,2017-05-01T14:30:00Z,29.5150,-94.5133,0.0,3.7,227.0,6.3,'11111222,11111222,11111222' 
TCOON,ioos:station:TCOON:518:1,2017-05-01T14:36:00Z,29.5150,-94.5133,0.0,3.1,221.0,5.9,'11111222,11111222,11111222' 
TCOON,ioos:station:TCOON:518:1,2017-05-01T14:42:00Z,29.5150,-94.5133,0.0,2.5,213.0,5.2,'11111222,11111222,11111222' 
TCOON,ioos:station:TCOON:518:1,2017-05-01T14:48:00Z,29.5150,-94.5133,0.0,4.1,225.0,5.8,'11111222,11111222,11111222' 
TCOON,ioos:station:TCOON:518:1,2017-05-01T14:54:00Z,29.5150,-94.5133,0.0,3.5,220.0,6.8,'11111222,11111222,11111222' 
TCOON,ioos:station:TCOON:518:1,2017-05-01T15:00:00Z,29.5150,-94.5133,0.0,4.1,215.0,6.5,'11111222,11111222,11111222' 
TCOON,ioos:station:TCOON:518:1,2017-05-01T15:06:00Z,29.5150,-94.5133,0.0,4.4,209.0,6.7,'11111222,11111222,11111222' 
TCOON,ioos:station:TCOON:518:1,2017-05-01T15:12:00Z,29.5150,-94.5133,0.0,4.3,228.0,6.0,'11111222,11111222,11111222' 
TCOON,ioos:station:TCOON:518:1,2017-05-01T15:18:00Z,29.5150,-94.5133,0.0,4.3,228.0,6.0,'1111122,1111122,1111122' 
TCOON,ioos:station:TCOON:518:1,2017-05-01T15:24:00Z,29.5150,-94.5133,0.0,4.1,221.0,6.3,'11111222,11111222,11111222' 
TCOON,ioos:station:TCOON:518:1,2017-05-01T15:30:00Z,29.5150,-94.5133,0.0,3.9,214.0,6.0,'11111222,11111222,11111222' 
TCOON,ioos:station:TCOON:518:1,2017-05-01T15:36:00Z,29.5150,-94.5133,0.0,4.7,230.0,6.9,'11111222,11111222,11111222' 
TCOON,ioos:station:TCOON:518:1,2017-05-01T15:42:00Z,29.5150,-94.5133,0.0,4.9,223.0,7.0,'11111222,11111222,11111222' 
TCOON,ioos:station:TCOON:518:1,2017-05-01T15:48:00Z,29.5150,-94.5133,0.0,3.8,224.0,7.1,'11111222,11111222,11111222' 
TCOON,ioos:station:TCOON:518:1,2017-05-01T15:54:00Z,29.5150,-94.5133,0.0,4.2,228.0,6.6,'11111222,11111222,11111222' 
TCOON,ioos:station:TCOON:518:1,2017-05-01T16:00:00Z,29.5150,-94.5133,0.0,4.4,230.0,6.8,'11111222,11111222,11111222' 
TCOON,ioos:station:TCOON:518:1,2017-05-01T16:06:00Z,29.5150,-94.5133,0.0,3.6,221.0,6.2,'11111222,11111222,11111222' 
TCOON,ioos:station:TCOON:518:1,2017-05-01T16:12:00Z,29.5150,-94.5133,0.0,4.3,228.0,6.6,'11111222,11111222,11111222' 
TCOON,ioos:station:TCOON:518:1,2017-05-01T16:18:00Z,29.5150,-94.5133,0.0,4.3,228.0,6.6,'1111122,1111122,1111122' 
TCOON,ioos:station:TCOON:518:1,2017-05-01T16:24:00Z,29.5150,-94.5133,0.0,4.5,231.0,6.8,'11111222,11111222,11111222' 
TCOON,ioos:station:TCOON:518:1,2017-05-01T16:30:00Z,29.5150,-94.5133,0.0,4.0,228.0,6.4,'11111222,11111222,11111222' 
TCOON,ioos:station:TCOON:518:1,2017-05-01T16:36:00Z,29.5150,-94.5133,0.0,3.2,212.0,5.7,'11111222,11111222,11111222' 
TCOON,ioos:station:TCOON:518:1,2017-05-01T16:42:00Z,29.5150,-94.5133,0.0,3.7,222.0,6.4,'11111222,11111222,11111222' 
TCOON,ioos:station:TCOON:518:1,2017-05-01T16:48:00Z,29.5150,-94.5133,0.0,3.8,218.0,6.8,'11111222,11111222,11111222' 
TCOON,ioos:station:TCOON:518:1,2017-05-01T16:54:00Z,29.5150,-94.5133,0.0,3.4,211.0,7.4,'11111222,11111222,11111222' 
TCOON,ioos:station:TCOON:518:1,2017-05-01T17:00:00Z,29.5150,-94.5133,0.0,4.1,224.0,7.1,'11111222,11111222,11111222' 
TCOON,ioos:station:TCOON:518:1,2017-05-01T17:06:00Z,29.5150,-94.5133,0.0,4.1,212.0,6.0,'11111222,11111222,11111222' 
TCOON,ioos:station:TCOON:518:1,2017-05-01T17:12:00Z,29.5150,-94.5133,0.0,4.6,212.0,7.3,'11111222,11111222,11111222' 
TCOON,ioos:station:TCOON:518:1,2017-05-01T17:18:00Z,29.5150,-94.5133,0.0,4.6,212.0,7.3,'1111122,1111122,1111122' 
TCOON,ioos:station:TCOON:518:1,2017-05-01T17:24:00Z,29.5150,-94.5133,0.0,4.6,223.0,6.8,'11111222,11111222,11111222' 
TCOON,ioos:station:TCOON:518:1,2017-05-01T17:30:00Z,29.5150,-94.5133,0.0,5.2,227.0,7.8,'11111222,11111222,11111222' 
TCOON,ioos:station:TCOON:518:1,2017-05-01T17:36:00Z,29.5150,-94.5133,0.0,4.6,219.0,7.0,'11111222,11111222,11111222' 
TCOON,ioos:station:TCOON:518:1,2017-05-01T17:42:00Z,29.5150,-94.5133,0.0,5.0,220.0,7.3,'11111222,11111222,11111222' 
TCOON,ioos:station:TCOON:518:1,2017-05-01T17:48:00Z,29.5150,-94.5133,0.0,4.9,232.0,6.9,'11111222,11111222,11111222' 
TCOON,ioos:station:TCOON:518:1,2017-05-01T17:54:00Z,29.5150,-94.5133,0.0,4.7,214.0,7.6,'11111222,11111222,11111222' 
TCOON,ioos:station:TCOON:518:1,2017-05-01T18:00:00Z,29.5150,-94.5133,0.0,5.5,226.0,7.7,'11111222,11111222,11111222' 
TCOON,ioos:station:TCOON:518:1,2017-05-01T18:06:00Z,29.5150,-94.5133,0.0,4.6,219.0,7.4,'11111222,11111222,11111222' 
TCOON,ioos:station:TCOON:518:1,2017-05-01T18:12:00Z,29.5150,-94.5133,0.0,3.4,218.0,7.6,'11111222,11111222,11111222' 
TCOON,ioos:station:TCOON:518:1,2017-05-01T18:18:00Z,29.5150,-94.5133,0.0,3.4,218.0,7.6,'1111122,1111122,1111122' 
TCOON,ioos:station:TCOON:518:1,2017-05-01T18:24:00Z,29.5150,-94.5133,0.0,4.6,223.0,6.9,'11111222,11111222,11111222' 
TCOON,ioos:station:TCOON:518:1,2017-05-01T18:30:00Z,29.5150,-94.5133,0.0,4.4,213.0,6.3,'11111222,11111222,11111222' 
TCOON,ioos:station:TCOON:518:1,2017-05-01T18:36:00Z,29.5150,-94.5133,0.0,4.3,215.0,6.7,'11111222,11111222,11111222' 
TCOON,ioos:station:TCOON:518:1,2017-05-01T18:42:00Z,29.5150,-94.5133,0.0,4.9,210.0,7.2,'11111222,11111222,11111222' 
TCOON,ioos:station:TCOON:518:1,2017-05-01T18:48:00Z,29.5150,-94.5133,0.0,4.6,225.0,6.8,'11111222,11111222,11111222' 
TCOON,ioos:station:TCOON:518:1,2017-05-01T18:54:00Z,29.5150,-94.5133,0.0,4.5,218.0,6.6,'11111222,11111222,11111222' 
TCOON,ioos:station:TCOON:518:1,2017-05-01T19:00:00Z,29.5150,-94.5133,0.0,4.3,212.0,7.0,'11111222,11111222,11111222' 
TCOON,ioos:station:TCOON:518:1,2017-05-01T19:06:00Z,29.5150,-94.5133,0.0,5.1,200.0,7.4,'11111222,11111222,11111222' 
TCOON,ioos:station:TCOON:518:1,2017-05-01T19:12:00Z,29.5150,-94.5133,0.0,4.6,212.0,7.0,'11111222,11111222,11111222' 
TCOON,ioos:station:TCOON:518:1,2017-05-01T19:18:00Z,29.5150,-94.5133,0.0,4.6,212.0,7.0,'1111122,1111122,1111122' 
TCOON,ioos:station:TCOON:518:1,2017-05-01T19:24:00Z,29.5150,-94.5133,0.0,5.6,203.0,8.3,'11111222,11111222,11111222' 
TCOON,ioos:station:TCOON:518:1,2017-05-01T19:30:00Z,29.5150,-94.5133,0.0,4.8,206.0,7.7,'11111222,11111222,11111222' 
TCOON,ioos:station:TCOON:518:1,2017-05-01T19:36:00Z,29.5150,-94.5133,0.0,4.4,200.0,7.4,'11111222,11111222,11111222' 
TCOON,ioos:station:TCOON:518:1,2017-05-01T19:42:00Z,29.5150,-94.5133,0.0,3.6,198.0,7.0,'11111222,11111222,11111222' 
TCOON,ioos:station:TCOON:518:1,2017-05-01T19:48:00Z,29.5150,-94.5133,0.0,4.7,191.0,6.7,'11111222,11111222,11111222' 
TCOON,ioos:station:TCOON:518:1,2017-05-01T19:54:00Z,29.5150,-94.5133,0.0,4.0,207.0,7.3,'11111222,11111222,11111222' 
TCOON,ioos:station:TCOON:518:1,2017-05-01T20:00:00Z,29.5150,-94.5133,0.0,4.4,196.0,6.9,'11111222,11111222,11111222' 
TCOON,ioos:station:TCOON:518:1,2017-05-01T20:06:00Z,29.5150,-94.5133,0.0,3.8,202.0,6.7,'11111222,11111222,11111222' 
TCOON,ioos:station:TCOON:518:1,2017-05-01T20:12:00Z,29.5150,-94.5133,0.0,4.1,194.0,6.1,'11111222,11111222,11111222' 
TCOON,ioos:station:TCOON:518:1,2017-05-01T20:18:00Z,29.5150,-94.5133,0.0,4.1,194.0,6.1,'1111122,1111122,1111122' 
TCOON,ioos:station:TCOON:518:1,2017-05-01T20:24:00Z,29.5150,-94.5133,0.0,4.3,189.0,6.0,'11111222,11111222,11111222' 
TCOON,ioos:station:TCOON:518:1,2017-05-01T20:30:00Z,29.5150,-94.5133,0.0,3.8,189.0,5.8,'11111222,11111222,11111222' 